Location: Newark
(30.0333°N, 31.2167°E)
Time: 01:10:43
(UTC+00:00)

Tiros 1 despin weight - Pass Details

Date: 26 January 2020
Orbit: 594 x 642 km, 48.2° (Epoch: 19 February)

Event Time Altitude Azimuth Distance (km) Brightness Sun altitude
Rises 15:05:30 0° 314° (NW) 2,920 ? 3.4°
Reaches altitude 10° 15:07:50 10° 318° (NW) 2,016 ? 2.9°
Maximum altitude 15:12:26 61° 39° (NE) 723 ? 2.0°
Drops below altitude 10° 15:17:04 10° 120° (ESE) 2,023 ? 1.1°
Sets 15:19:25 0° 124° (ESE) 2,930 ? 0.6°
